Time,TemperatureF,DewpointF,PressureIn,WindDirection,WindDirectionDegrees,WindSpeedMPH,WindSpeedGustMPH,Humidity,HourlyPrecipIn,Conditions,Clouds,dailyrainin,SoftwareType,DateUTC
2013-03-04 00:07:00,-999.0,-99.9,29.59,WNW,301,2.0,-999.0,-999,-99.99,,,0.00,weatherlink.com 1.10,2013-03-04 05:07:00,
2013-03-04 00:22:00,-999.0,-99.9,29.59,West,268,5.0,-999.0,-999,-99.99,,,0.00,weatherlink.com 1.10,2013-03-04 05:22:00,
2013-03-04 00:37:00,-999.0,-99.9,29.60,West,275,7.0,-999.0,-999,-99.99,,,0.00,weatherlink.com 1.10,2013-03-04 05:37:00,
2013-03-04 00:52:00,-999.0,-99.9,29.60,WSW,249,4.0,-999.0,-999,-99.99,,,0.00,weatherlink.com 1.10,2013-03-04 05:52:00,
2013-03-04 01:07:00,-999.0,-99.9,29.60,WSW,245,3.0,-999.0,-999,-99.99,,,0.00,weatherlink.com 1.10,2013-03-04 06:07:00,
2013-03-04 01:22:00,-999.0,-99.9,29.60,WSW,238,10.0,-999.0,-999,-99.99,,,0.00,weatherlink.com 1.10,2013-03-04 06:22:00,
2013-03-04 01:37:00,-999.0,-99.9,29.60,WSW,249,2.0,-999.0,-999,-99.99,,,0.00,weatherlink.com 1.10,2013-03-04 06:37:00,
2013-03-04 01:52:00,-999.0,-99.9,29.60,SSW,211,4.0,-999.0,-999,-99.99,,,0.00,weatherlink.com 1.10,2013-03-04 06:52:00,
2013-03-04 02:07:00,-999.0,-99.9,29.60,NW,319,4.0,-999.0,-999,-99.99,,,0.00,weatherlink.com 1.10,2013-03-04 07:07:00,
2013-03-04 02:22:00,-999.0,-99.9,29.60,West,259,2.0,-999.0,-999,-99.99,,,0.00,weatherlink.com 1.10,2013-03-04 07:22:00,
2013-03-04 02:37:00,-999.0,-99.9,29.60,West,262,3.0,-999.0,-999,-99.99,,,0.00,weatherlink.com 1.10,2013-03-04 07:37:00,
2013-03-04 02:52:00,-999.0,-99.9,29.60,SW,227,3.0,-999.0,-999,-99.99,,,0.00,weatherlink.com 1.10,2013-03-04 07:52:00,
2013-03-04 03:07:00,-999.0,-99.9,29.60,WSW,242,8.0,-999.0,-999,-99.99,,,0.00,weatherlink.com 1.10,2013-03-04 08:07:00,
2013-03-04 03:37:00,-999.0,-99.9,29.61,SW,231,1.0,-999.0,-999,-99.99,,,0.00,weatherlink.com 1.10,2013-03-04 08:37:00,
2013-03-04 03:52:00,-999.0,-99.9,29.61,WNW,296,6.0,-999.0,-999,-99.99,,,0.00,weatherlink.com 1.10,2013-03-04 08:52:00,
2013-03-04 04:07:00,-999.0,-99.9,29.61,WSW,246,4.0,-999.0,-999,-99.99,,,0.00,weatherlink.com 1.10,2013-03-04 09:07:00,
2013-03-04 04:22:00,-999.0,-99.9,29.61,WSW,251,3.0,-999.0,-999,-99.99,,,0.00,weatherlink.com 1.10,2013-03-04 09:22:00,
2013-03-04 04:37:00,-999.0,-99.9,29.62,SSW,210,4.0,-999.0,-999,-99.99,,,0.00,weatherlink.com 1.10,2013-03-04 09:37:00,
2013-03-04 04:52:00,-999.0,-99.9,29.62,WSW,253,3.0,-999.0,-999,-99.99,,,0.00,weatherlink.com 1.10,2013-03-04 09:52:00,
2013-03-04 05:07:00,-999.0,-99.9,29.62,WSW,239,4.0,-999.0,-999,-99.99,,,0.00,weatherlink.com 1.10,2013-03-04 10:07:00,
2013-03-04 05:22:00,-999.0,-99.9,29.62,West,261,7.0,-999.0,-999,-99.99,,,0.00,weatherlink.com 1.10,2013-03-04 10:22:00,
2013-03-04 05:37:00,-999.0,-99.9,29.62,SW,227,9.0,-999.0,-999,-99.99,,,0.00,weatherlink.com 1.10,2013-03-04 10:37:00,
2013-03-04 05:52:00,-999.0,-99.9,29.62,SSW,200,2.0,-999.0,-999,-99.99,,,0.00,weatherlink.com 1.10,2013-03-04 10:52:00,
2013-03-04 06:07:00,-999.0,-99.9,29.62,WSW,251,3.0,-999.0,-999,-99.99,,,0.00,weatherlink.com 1.10,2013-03-04 11:07:00,
2013-03-04 06:22:00,-999.0,-99.9,29.63,NNE,29,0.0,-999.0,-999,-99.99,,,0.00,weatherlink.com 1.10,2013-03-04 11:22:00,
2013-03-04 06:37:00,-999.0,-99.9,29.63,WNW,291,6.0,-999.0,-999,-99.99,,,0.00,weatherlink.com 1.10,2013-03-04 11:37:00,
2013-03-04 06:52:00,-999.0,-99.9,29.63,NW,320,9.0,-999.0,-999,-99.99,,,0.00,weatherlink.com 1.10,2013-03-04 11:52:00,
2013-03-04 07:07:00,29.8,22.0,29.63,WSW,249,6.0,-999.0,72,-99.99,,,0.00,weatherlink.com 1.10,2013-03-04 12:07:00,
2013-03-04 07:22:00,30.1,22.0,29.64,West,272,13.0,-999.0,71,-99.99,,,0.00,weatherlink.com 1.10,2013-03-04 12:22:00,
2013-03-04 07:37:00,30.6,22.0,29.64,West,262,4.0,-999.0,70,-99.99,,,0.00,weatherlink.com 1.10,2013-03-04 12:37:00,
2013-03-04 07:52:00,31.3,22.0,29.64,NW,311,12.0,-999.0,68,-99.99,,,0.00,weatherlink.com 1.10,2013-03-04 12:52:00,
2013-03-04 08:07:00,31.9,22.0,29.65,West,267,5.0,-999.0,67,-99.99,,,0.00,weatherlink.com 1.10,2013-03-04 13:07:00,
2013-03-04 08:22:00,32.7,22.0,29.65,WSW,238,5.0,-999.0,65,-99.99,,,0.00,weatherlink.com 1.10,2013-03-04 13:22:00,
2013-03-04 08:37:00,32.8,23.0,29.64,NW,310,7.0,-999.0,66,-99.99,,,0.00,weatherlink.com 1.10,2013-03-04 13:37:00,
2013-03-04 08:52:00,33.5,23.0,29.64,West,260,7.0,-999.0,65,-99.99,,,0.00,weatherlink.com 1.10,2013-03-04 13:52:00,
2013-03-04 09:07:00,33.4,23.0,29.63,West,268,5.0,-999.0,65,-99.99,,,0.00,weatherlink.com 1.10,2013-03-04 14:07:00,
2013-03-04 09:22:00,34.6,23.0,29.63,WNW,298,9.0,-999.0,64,-99.99,,,0.00,weatherlink.com 1.10,2013-03-04 14:22:00,
2013-03-04 09:37:00,35.9,23.0,29.63,WNW,303,6.0,-999.0,61,-99.99,,,0.00,weatherlink.com 1.10,2013-03-04 14:37:00,
2013-03-04 09:52:00,36.6,23.0,29.63,WSW,249,3.0,-999.0,59,-99.99,,,0.00,weatherlink.com 1.10,2013-03-04 14:52:00,
2013-03-04 10:07:00,37.2,23.0,29.63,WNW,289,6.0,-999.0,58,-99.99,,,0.00,weatherlink.com 1.10,2013-03-04 15:07:00,
2013-03-04 10:22:00,38.3,25.0,29.63,West,279,2.0,-999.0,58,-99.99,,,0.00,weatherlink.com 1.10,2013-03-04 15:22:00,
2013-03-04 10:37:00,38.9,24.0,29.63,West,277,3.0,-999.0,55,-99.99,,,0.00,weatherlink.com 1.10,2013-03-04 15:37:00,
2013-03-04 10:52:00,38.6,24.0,29.62,SW,226,2.0,-999.0,55,-99.99,,,0.00,weatherlink.com 1.10,2013-03-04 15:52:00,
2013-03-04 11:07:00,39.9,25.0,29.62,SW,234,6.0,-999.0,55,-99.99,,,0.00,weatherlink.com 1.10,2013-03-04 16:07:00,
2013-03-04 11:22:00,40.6,25.0,29.62,West,273,6.0,-999.0,55,-99.99,,,0.00,weatherlink.com 1.10,2013-03-04 16:22:00,
2013-03-04 11:37:00,40.2,25.0,29.61,WSW,237,8.0,-999.0,55,-99.99,,,0.00,weatherlink.com 1.10,2013-03-04 16:37:00,
2013-03-04 11:52:00,40.3,26.0,29.61,South,183,2.0,-999.0,58,-99.99,,,0.00,weatherlink.com 1.10,2013-03-04 16:52:00,
2013-03-04 12:07:00,38.8,25.0,29.61,NNW,332,9.0,-999.0,58,-99.99,,,0.00,weatherlink.com 1.10,2013-03-04 17:07:00,
2013-03-04 12:22:00,40.1,26.0,29.61,West,263,7.0,-999.0,57,-99.99,,,0.00,weatherlink.com 1.10,2013-03-04 17:22:00,
2013-03-04 12:37:00,41.3,26.0,29.60,West,261,4.0,-999.0,56,-99.99,,,0.00,weatherlink.com 1.10,2013-03-04 17:37:00,
2013-03-04 12:52:00,40.6,26.0,29.60,West,259,7.0,-999.0,56,-99.99,,,0.00,weatherlink.com 1.10,2013-03-04 17:52:00,
2013-03-04 13:22:00,41.8,25.0,29.58,NW,325,6.0,-999.0,51,-99.99,,,0.00,weatherlink.com 1.10,2013-03-04 18:22:00,
2013-03-04 13:37:00,42.5,25.0,29.58,SW,225,6.0,-999.0,51,-99.99,,,0.00,weatherlink.com 1.10,2013-03-04 18:37:00,
2013-03-04 13:52:00,41.5,25.0,29.58,SW,231,2.0,-999.0,53,-99.99,,,0.00,weatherlink.com 1.10,2013-03-04 18:52:00,
2013-03-04 14:07:00,42.8,25.0,29.59,NW,317,3.0,-999.0,50,-99.99,,,0.00,weatherlink.com 1.10,2013-03-04 19:07:00,
2013-03-04 14:22:00,42.5,26.0,29.59,NNW,329,7.0,-999.0,52,-99.99,,,0.00,weatherlink.com 1.10,2013-03-04 19:22:00,
2013-03-04 14:37:00,43.2,26.0,29.59,NNW,327,9.0,-999.0,51,-99.99,,,0.00,weatherlink.com 1.10,2013-03-04 19:37:00,
2013-03-04 14:52:00,43.1,25.0,29.59,WSW,257,7.0,-999.0,50,-99.99,,,0.00,weatherlink.com 1.10,2013-03-04 19:52:00,
2013-03-04 15:07:00,42.3,25.0,29.59,South,176,0.0,-999.0,51,-99.99,,,0.00,weatherlink.com 1.10,2013-03-04 20:07:00,
2013-03-04 15:22:00,42.3,25.0,29.59,WNW,294,6.0,-999.0,51,-99.99,,,0.00,weatherlink.com 1.10,2013-03-04 20:22:00,
2013-03-04 15:37:00,42.6,26.0,29.59,SW,234,5.0,-999.0,52,-99.99,,,0.00,weatherlink.com 1.10,2013-03-04 20:37:00,
2013-03-04 15:52:00,42.1,25.0,29.59,SW,224,4.0,-999.0,52,-99.99,,,0.00,weatherlink.com 1.10,2013-03-04 20:52:00,
2013-03-04 16:07:00,41.6,24.0,29.59,NW,308,2.0,-999.0,50,-99.99,,,0.00,weatherlink.com 1.10,2013-03-04 21:07:00,
2013-03-04 16:22:00,41.2,25.0,29.59,WSW,244,1.0,-999.0,52,-99.99,,,0.00,weatherlink.com 1.10,2013-03-04 21:22:00,
2013-03-04 16:37:00,41.1,25.0,29.60,NW,308,13.0,-999.0,53,-99.99,,,0.00,weatherlink.com 1.10,2013-03-04 21:37:00,
2013-03-04 16:52:00,40.6,24.0,29.60,WNW,291,4.0,-999.0,53,-99.99,,,0.00,weatherlink.com 1.10,2013-03-04 21:52:00,
2013-03-04 17:07:00,-999.0,-99.9,29.60,WNW,301,1.0,-999.0,-999,-99.99,,,0.00,weatherlink.com 1.10,2013-03-04 22:07:00,
2013-03-04 17:22:00,-999.0,-99.9,29.61,NNW,339,17.0,-999.0,-999,-99.99,,,0.00,weatherlink.com 1.10,2013-03-04 22:22:00,
2013-03-04 17:37:00,-999.0,-99.9,29.62,ESE,111,1.0,-999.0,-999,-99.99,,,0.00,weatherlink.com 1.10,2013-03-04 22:37:00,
2013-03-04 17:52:00,-999.0,-99.9,29.63,SW,225,7.0,-999.0,-999,-99.99,,,0.00,weatherlink.com 1.10,2013-03-04 22:52:00,
2013-03-04 18:07:00,-999.0,-99.9,29.64,NNE,16,1.0,-999.0,-999,-99.99,,,0.00,weatherlink.com 1.10,2013-03-04 23:07:00,
2013-03-04 18:22:00,-999.0,-99.9,29.65,ENE,64,5.0,-999.0,-999,-99.99,,,0.00,weatherlink.com 1.10,2013-03-04 23:22:00,
2013-03-04 18:37:00,-999.0,-99.9,29.66,NNE,23,4.0,-999.0,-999,-99.99,,,0.00,weatherlink.com 1.10,2013-03-04 23:37:00,
2013-03-04 18:52:00,-999.0,-99.9,29.66,ESE,104,1.0,-999.0,-999,-99.99,,,0.00,weatherlink.com 1.10,2013-03-04 23:52:00,
2013-03-04 19:07:00,-999.0,-99.9,29.67,NW,307,0.0,-999.0,-999,-99.99,,,0.00,weatherlink.com 1.10,2013-03-05 00:07:00,
2013-03-04 19:22:00,-999.0,-99.9,29.67,NNW,345,6.0,-999.0,-999,-99.99,,,0.00,weatherlink.com 1.10,2013-03-05 00:22:00,
2013-03-04 19:37:00,-999.0,-99.9,29.67,SW,234,7.0,-999.0,-999,-99.99,,,0.00,weatherlink.com 1.10,2013-03-05 00:37:00,
2013-03-04 19:52:00,-999.0,-99.9,29.68,WSW,252,4.0,-999.0,-999,-99.99,,,0.00,weatherlink.com 1.10,2013-03-05 00:52:00,
2013-03-04 20:07:00,-999.0,-99.9,29.68,WNW,301,4.0,-999.0,-999,-99.99,,,0.00,weatherlink.com 1.10,2013-03-05 01:07:00,
2013-03-04 20:22:00,-999.0,-99.9,29.69,SW,235,6.0,-999.0,-999,-99.99,,,0.00,weatherlink.com 1.10,2013-03-05 01:22:00,
2013-03-04 20:37:00,-999.0,-99.9,29.69,West,261,9.0,-999.0,-999,-99.99,,,0.00,weatherlink.com 1.10,2013-03-05 01:37:00,
2013-03-04 20:52:00,-999.0,-99.9,29.69,West,260,6.0,-999.0,-999,-99.99,,,0.00,weatherlink.com 1.10,2013-03-05 01:52:00,
2013-03-04 21:07:00,-999.0,-99.9,29.69,WNW,302,7.0,-999.0,-999,-99.99,,,0.00,weatherlink.com 1.10,2013-03-05 02:07:00,
2013-03-04 21:22:00,-999.0,-99.9,29.69,WSW,250,3.0,-999.0,-999,-99.99,,,0.00,weatherlink.com 1.10,2013-03-05 02:22:00,
2013-03-04 21:37:00,-999.0,-99.9,29.69,WNW,299,6.0,-999.0,-999,-99.99,,,0.00,weatherlink.com 1.10,2013-03-05 02:37:00,
2013-03-04 21:52:00,-999.0,-99.9,29.70,WSW,249,8.0,-999.0,-999,-99.99,,,0.00,weatherlink.com 1.10,2013-03-05 02:52:00,
2013-03-04 22:07:00,-999.0,-99.9,29.70,ENE,71,2.0,-999.0,-999,-99.99,,,0.00,weatherlink.com 1.10,2013-03-05 03:07:00,
2013-03-04 22:22:00,-999.0,-99.9,29.70,NNW,341,6.0,-999.0,-999,-99.99,,,0.00,weatherlink.com 1.10,2013-03-05 03:22:00,
2013-03-04 22:37:00,-999.0,-99.9,29.71,SW,215,1.0,-999.0,-999,-99.99,,,0.00,weatherlink.com 1.10,2013-03-05 03:37:00,
2013-03-04 22:52:00,-999.0,-99.9,29.71,SW,234,0.0,-999.0,-999,-99.99,,,0.00,weatherlink.com 1.10,2013-03-05 03:52:00,
2013-03-04 23:07:00,-999.0,-99.9,29.72,WSW,249,6.0,-999.0,-999,-99.99,,,0.00,weatherlink.com 1.10,2013-03-05 04:07:00,
2013-03-04 23:22:00,-999.0,-99.9,29.72,NNW,348,3.0,-999.0,-999,-99.99,,,0.00,weatherlink.com 1.10,2013-03-05 04:22:00,
2013-03-04 23:37:00,-999.0,-99.9,29.72,WNW,302,3.0,-999.0,-999,-99.99,,,0.00,weatherlink.com 1.10,2013-03-05 04:37:00,
2013-03-04 23:52:00,-999.0,-99.9,29.72,West,260,1.0,-999.0,-999,-99.99,,,0.00,weatherlink.com 1.10,2013-03-05 04:52:00,